This is the latest recevied weather packets stored in our database for station/object PP5FMM-13. If no packets are shown the sender has not sent any weather packets the latest 10 day(s).
| Time | Temp. | Humidity | Pressure | Rain* | Wind** | Luminosity | Snow |
|---|---|---|---|---|---|---|---|
| 1777595429 | 26.11° C | 94% | 1020 hPa | - | - | - | - |
| 1777595129 | 26.11° C | 93% | 1020 hPa | - | - | - | - |
| 1777594829 | 26.11° C | 92% | 1020 hPa | - | - | - | - |
| 1777594530 | 26.11° C | 92% | 1019.8 hPa | - | - | - | - |
| 1777594229 | 26.11° C | 92% | 1019.8 hPa | - | - | - | - |
| 1777593929 | 26.11° C | 92% | 1019.7 hPa | - | - | - | - |
| 1777593629 | 26.11° C | 92% | 1019.7 hPa | - | - | - | - |
| 1777593329 | 26.11° C | 92% | 1019.7 hPa | - | - | - | - |
| 1777593029 | 26.11° C | 92% | 1019.7 hPa | - | - | - | - |
| 1777592729 | 26.11° C | 92% | 1019.7 hPa | - | - | - | - |
| 1777592430 | 26.11° C | 91% | 1019.7 hPa | - | - | - | - |
| 1777592129 | 26.11° C | 91% | 1019.6 hPa | - | - | - | - |
| 1777591829 | 26.11° C | 90% | 1019.5 hPa | - | - | - | - |
| 1777591530 | 26.11° C | 90% | 1019.5 hPa | - | - | - | - |
| 1777591229 | 26.11° C | 90% | 1019.5 hPa | - | - | - | - |
| 1777590929 | 26.67° C | 89% | 1019.4 hPa | - | - | - | - |
| 1777590629 | 26.11° C | 90% | 1019.3 hPa | - | - | - | - |
| 1777590329 | 26.67° C | 90% | 1019.1 hPa | - | - | - | - |
| 1777590029 | 26.67° C | 92% | 1019 hPa | - | - | - | - |
| 1777589729 | 26.11° C | 95% | 1019 hPa | - | - | - | - |
| 1777589430 | 26.11° C | 92% | 1018.9 hPa | - | - | - | - |
| 1777589129 | 26.11° C | 92% | 1018.8 hPa | - | - | - | - |
| 1777588829 | 26.11° C | 91% | 1018.7 hPa | - | - | - | - |
| 1777588529 | 26.11° C | 91% | 1018.6 hPa | - | - | - | - |
| 1777588229 | 26.11° C | 91% | 1018.7 hPa | - | - | - | - |
* Rain since midnight (hover to see other rain measurements)
** Current wind speed in m/s (hover to see current wind gust speed)